Madera, CA

3:15 AM PDT on May 28, 2018 (GMT -0700)
Madera Municipal

Weather History for KMAE - November, 2011

Change the Weather History Date:

Saturday, November 12, 2011

  Actual Average Record
Temperature  
Mean Temperature 54 °F 54 °F  
Max Temperature 63 °F 66 °F 80 °F (2016)
Min Temperature 45 °F 42 °F 31 °F (2000)
Degree Days  
Heating Degree Days 11    
Month to date heating degree days 153  
Since 1 July heating degree days 214  
Cooling Degree Days 0    
Month to date cooling degree days 0  
Year to date cooling degree days 1402  
Growing Degree Days 3 (Base 50)    
Moisture  
Dew Point 46 °F    
Average Humidity 78    
Maximum Humidity 100    
Minimum Humidity 56    
Precipitation  
Precipitation T in 0.04 in 1.04 in (2001)
Month to date precipitation 0.47 0.51  
Year to date precipitation 8.61 9.68  
Since 1 July precipitation 1.23  
Snow  
Snow 0.00 in - - ()
Month to date snowfall 0.0  
Since 1 July snowfall 0.0  
Since 1 September snowfall 0.0  
Snow Depth 0.00 in    
Sea Level Pressure  
Sea Level Pressure 29.87 in    
Wind  
Wind Speed 6 mph (NW)    
Max Wind Speed 12 mph    
Max Gust Speed 14 mph    
Visibility 7 miles    
Events Fog    
T = Trace of Precipitation, MM = Missing Value Source: NWS Daily Summary

Daily Weather History Graph

Daily Weather History Graph

Search for Another Location

Airport or City:

Astronomy

Nov. 12, 2011 Rise Set
Actual Time 6:35 AM PST 4:53 PM PST
Civil Twilight 6:08 AM PST 5:20 PM PST
Nautical Twilight 5:36 AM PST 5:51 PM PST
Astronomical Twilight 5:06 AM PST 6:22 PM PST
Moon 6:15 PM PST (11/12) 8:19 AM PST (11/12)
Length of Visible Light 11h 12m
Length of Day
10h 17m
Waning Gibbous, 96% of the Moon is Illuminated
Nov 12
Waning Gibbous
Nov 18
Last Quarter
Nov 24
New
Dec 2
First Quarter
Dec 10
Full

Hourly Weather History & Observations

Time (PST) Temp. Windchill Dew Point Humidity Pressure Visibility Wind Dir Wind Speed Gust Speed Precip Events Conditions
12:53 AM 48.9 °F - 46.9 °F 93% 29.81 in 6.0 mi Calm Calm - N/A   Mostly Cloudy
1:33 AM 46.4 °F - 44.6 °F 93% 29.82 in 1.8 mi Calm Calm - N/A   Clear
1:41 AM 46.4 °F - 44.6 °F 93% 29.82 in 0.5 mi Calm Calm - N/A Fog Fog
1:51 AM 44.6 °F 42.2 °F 44.6 °F 100% 29.83 in 2.0 mi NW 4.6 mph - N/A   Clear
1:53 AM 46.0 °F 43.9 °F 44.1 °F 93% 29.83 in 2.5 mi NW 4.6 mph - N/A   Partly Cloudy
2:02 AM 46.4 °F - 44.6 °F 93% 29.84 in 3.0 mi Calm Calm - N/A   Mostly Cloudy
2:49 AM 48.2 °F - 46.4 °F 93% 29.83 in 2.5 mi North 8.1 mph - N/A   Overcast
2:53 AM 48.9 °F - 46.0 °F 90% 29.83 in 3.0 mi North 6.9 mph - N/A   Overcast
3:53 AM 50.0 °F - 48.0 °F 93% 29.82 in 3.0 mi North 8.1 mph - 0.00 in   Overcast
4:53 AM 51.1 °F - 48.0 °F 89% 29.81 in 6.0 mi NE 8.1 mph - N/A   Overcast
5:53 AM 51.1 °F - 46.9 °F 86% 29.83 in 9.0 mi NE 6.9 mph - N/A   Overcast
6:53 AM 52.0 °F - 46.9 °F 83% 29.83 in 10.0 mi NE 8.1 mph - N/A   Overcast
7:53 AM 54.0 °F - 46.9 °F 77% 29.86 in 10.0 mi East 4.6 mph - N/A   Overcast
8:53 AM 55.9 °F - 46.9 °F 72% 29.87 in 10.0 mi South 4.6 mph - N/A   Overcast
9:53 AM 57.0 °F - 46.0 °F 67% 29.88 in 10.0 mi SW 5.8 mph - N/A   Partly Cloudy
10:49 AM 57.2 °F - 46.4 °F 67% 29.90 in 10.0 mi WSW 3.5 mph - N/A   Mostly Cloudy
10:53 AM 57.0 °F - 48.0 °F 72% 29.89 in 10.0 mi WSW 4.6 mph - N/A   Overcast
11:53 AM 57.0 °F - 48.0 °F 72% 29.89 in 10.0 mi NW 10.4 mph - N/A   Mostly Cloudy
12:31 PM 59.0 °F - 48.2 °F 67% 29.88 in 10.0 mi WNW 6.9 mph - N/A   Partly Cloudy
12:53 PM 60.1 °F - 46.9 °F 62% 29.88 in 10.0 mi West 8.1 mph - N/A   Mostly Cloudy
1:01 PM 60.8 °F - 46.4 °F 59% 29.88 in 10.0 mi WNW 6.9 mph - N/A   Mostly Cloudy
1:12 PM 59.0 °F - 46.4 °F 63% 29.87 in 10.0 mi WNW 5.8 mph - N/A   Overcast
1:53 PM 61.0 °F - 46.9 °F 60% 29.86 in 10.0 mi West 4.6 mph - N/A   Overcast
2:53 PM 62.1 °F - 46.9 °F 58% 29.85 in 10.0 mi Variable 4.6 mph - N/A   Clear
3:53 PM 62.1 °F - 46.9 °F 58% 29.85 in 10.0 mi WNW 5.8 mph - N/A   Clear
4:53 PM 57.0 °F - 46.9 °F 69% 29.86 in 10.0 mi West 5.8 mph - N/A   Clear
5:53 PM 54.0 °F - 48.0 °F 80% 29.89 in 6.0 mi West 6.9 mph - N/A   Haze
6:53 PM 51.1 °F - 46.9 °F 86% 29.89 in 5.0 mi West 6.9 mph - N/A   Clear
7:53 PM 48.9 °F - 46.0 °F 90% 29.91 in 5.0 mi West 6.9 mph - N/A   Clear
8:53 PM 48.9 °F - 46.0 °F 90% 29.94 in 5.0 mi Calm Calm - N/A   Clear
9:53 PM 48.9 °F - 45.0 °F 86% 29.95 in 6.0 mi NNE 3.5 mph - N/A   Clear
10:53 PM 45.0 °F 41.8 °F 43.0 °F 93% 29.94 in 4.0 mi NNW 5.8 mph - N/A   Clear
11:53 PM 46.0 °F - 45.0 °F 96% 29.95 in 2.5 mi Calm Calm - N/A   Clear